| time (UTC) | temp C | wind direction | speed KPH | gust KPH | rain 1hr cm | rain 24hr cm | rain mn cm | humidity % | barometer mb |
| 20260507192057 | 16 | 0.0 | 0.0 | 0.00 | 0.43 | 0.00 | 58 | 1013.1 | |
| 20260507191057 | 16 | 0.0 | 0.0 | 0.00 | 0.69 | 0.00 | 59 | 1013.1 | |
| 20260507190026 | 16 | 0.0 | 0.0 | 0.00 | 0.69 | 0.00 | 59 | 1013.1 | |
| 20260507185026 | 17 | 0.0 | 0.0 | 0.00 | 0.69 | 0.00 | 59 | 1012.9 | |
| 20260507184055 | 17 | 0.0 | 0.0 | 0.00 | 0.69 | 0.00 | 58 | 1012.9 | |
| 20260507183024 | 17 | 338 | 1.6 | 1.6 | 0.00 | 0.69 | 0.00 | 57 | 1012.8 |
| 20260507182023 | 17 | 338 | 0.0 | 1.6 | 0.00 | 0.69 | 0.00 | 57 | 1012.7 |
| 20260507181022 | 18 | 0.0 | 0.0 | 0.00 | 0.69 | 0.00 | 57 | 1012.8 | |
| 20260507180022 | 18 | 0.0 | 0.0 | 0.00 | 0.69 | 0.00 | 55 | 1012.7 | |
| 20260507175051 | 18 | 0.0 | 0.0 | 0.00 | 0.69 | 0.00 | 53 | 1012.8 | |
| 20260507174110 | 18 | 0.0 | 0.0 | 0.00 | 0.69 | 0.00 | 51 | 1012.7 | |
| 20260507173020 | 18 | 0.0 | 0.0 | 0.00 | 0.69 | 0.00 | 51 | 1012.7 | |
| 20260507172019 | 18 | 0.0 | 0.0 | 0.00 | 0.69 | 0.00 | 52 | 1012.6 | |
| 20260507171048 | 19 | 0.0 | 0.0 | 0.00 | 0.69 | 0.00 | 52 | 1012.5 | |
| 20260507170048 | 19 | 0.0 | 0.0 | 0.00 | 0.69 | 0.00 | 51 | 1012.6 | |
| 20260507165047 | 19 | 315 | 3.2 | 8.0 | 0.00 | 0.69 | 0.00 | 52 | 1012.6 |
| 20260507164046 | 18 | 0.0 | 0.0 | 0.00 | 0.69 | 0.00 | 53 | 1012.6 | |
| 20260507163045 | 18 | 337 | 1.6 | 4.8 | 0.00 | 0.69 | 0.00 | 51 | 1012.7 |
| 20260507162045 | 19 | 25 | 3.2 | 6.4 | 0.00 | 0.69 | 0.00 | 51 | 1012.7 |
| 20260507161044 | 19 | 13 | 4.8 | 8.0 | 0.00 | 0.69 | 0.00 | 54 | 1012.8 |
| 20260507160043 | 19 | 350 | 3.2 | 6.4 | 0.00 | 0.71 | 0.00 | 54 | 1012.9 |
| 20260507155042 | 19 | 23 | 4.8 | 6.4 | 0.00 | 0.71 | 0.00 | 53 | 1012.7 |
| 20260507154112 | 19 | 4 | 1.6 | 4.8 | 0.00 | 0.71 | 0.00 | 54 | 1012.7 |
| 20260507153041 | 20 | 161 | 3.2 | 11.3 | 0.00 | 0.74 | 0.00 | 55 | 1012.8 |
| 20260507152040 | 20 | 0 | 9.7 | 16.1 | 0.00 | 0.76 | 0.00 | 53 | 1012.9 |
| 20260507151039 | 20 | 334 | 3.2 | 6.4 | 0.00 | 0.76 | 0.00 | 55 | 1013.0 |
| 20260507150039 | 20 | 338 | 1.6 | 4.8 | 0.00 | 0.76 | 0.00 | 57 | 1013.1 |
| 20260507145038 | 20 | 0 | 4.8 | 6.4 | 0.00 | 0.76 | 0.00 | 55 | 1013.2 |
| 20260507144107 | 20 | 0.0 | 0.0 | 0.00 | 0.76 | 0.00 | 56 | 1013.4 | |
| 20260507143037 | 20 | 0.0 | 0.0 | 0.00 | 0.76 | 0.00 | 57 | 1013.5 | |
| 20260507142036 | 20 | 0.0 | 0.0 | 0.00 | 0.76 | 0.00 | 57 | 1013.5 | |
| 20260507141035 | 20 | 0.0 | 0.0 | 0.00 | 0.76 | 0.00 | 57 | 1013.7 | |
| 20260507140035 | 19 | 0.0 | 0.0 | 0.00 | 0.76 | 0.00 | 57 | 1013.9 | |
| 20260507135054 | 19 | 0.0 | 0.0 | 0.00 | 0.76 | 0.00 | 56 | 1014.0 | |
| 20260507134033 | 20 | 0.0 | 0.0 | 0.00 | 0.76 | 0.00 | 55 | 1014.0 | |
| 20260507133203 | 20 | 0.0 | 0.0 | 0.00 | 0.76 | 0.00 | 58 | 1014.1 | |
| 20260507132132 | 20 | 315 | 6.4 | 8.0 | 0.00 | 0.76 | 0.00 | 56 | 1014.2 |
| 20260507131121 | 20 | 0.0 | 0.0 | 0.00 | 0.79 | 0.00 | 60 | 1014.4 | |
| 20260507130130 | 20 | 0.0 | 0.0 | 0.00 | 0.84 | 0.00 | 58 | 1014.5 | |
| 20260507125059 | 19 | 0.0 | 0.0 | 0.00 | 0.86 | 0.00 | 59 | 1014.7 | |
| 20260507124059 | 19 | 0.0 | 0.0 | 0.00 | 0.86 | 0.00 | 60 | 1014.7 | |
| 20260507123028 | 19 | 0.0 | 0.0 | 0.00 | 0.86 | 0.00 | 60 | 1014.9 | |
| 20260507122117 | 19 | 0.0 | 0.0 | 0.00 | 0.89 | 0.00 | 61 | 1014.9 | |
| 20260507121056 | 19 | 0.0 | 0.0 | 0.00 | 0.89 | 0.00 | 62 | 1015.0 | |
| 20260507120026 | 19 | 0.0 | 0.0 | 0.00 | 0.89 | 0.00 | 62 | 1015.1 | |
| 20260507115055 | 19 | 293 | 6.4 | 6.4 | 0.00 | 0.91 | 0.00 | 61 | 1015.3 |
| 20260507114055 | 18 | 0.0 | 0.0 | 0.00 | 0.91 | 0.00 | 61 | 1015.4 | |
| 20260507113044 | 18 | 338 | 1.6 | 4.8 | 0.00 | 0.91 | 0.00 | 61 | 1015.5 |
| 20260507112053 | 18 | 312 | 3.2 | 6.4 | 0.00 | 0.91 | 0.00 | 61 | 1015.5 |
| 20260507111042 | 18 | 0.0 | 0.0 | 0.00 | 0.91 | 0.00 | 64 | 1015.6 | |
| 20260507110022 | 17 | 48 | 1.6 | 4.8 | 0.00 | 0.91 | 0.00 | 62 | 1015.7 |
| 20260507105041 | 17 | 326 | 1.6 | 4.8 | 0.00 | 0.91 | 0.00 | 63 | 1015.7 |
| 20260507104020 | 17 | 306 | 3.2 | 8.0 | 0.00 | 0.91 | 0.00 | 63 | 1015.7 |
| 20260507103130 | 17 | 324 | 1.6 | 4.8 | 0.00 | 0.91 | 0.00 | 66 | 1015.7 |
| 20260507102019 | 17 | 23 | 1.6 | 4.8 | 0.00 | 0.91 | 0.00 | 67 | 1015.8 |
| 20260507101048 | 16 | 85 | 3.2 | 4.8 | 0.00 | 0.91 | 0.00 | 68 | 1015.9 |
| 20260507100047 | 16 | 0.0 | 0.0 | 0.00 | 0.91 | 0.00 | 67 | 1015.9 | |
| 20260507095137 | 17 | 0.0 | 0.0 | 0.00 | 0.91 | 0.00 | 69 | 1015.9 | |
| 20260507094106 | 16 | 0.0 | 0.0 | 0.00 | 0.91 | 0.00 | 68 | 1016.0 | |
| 20260507093145 | 16 | 0.0 | 0.0 | 0.00 | 0.91 | 0.00 | 70 | 1015.9 | |
| 20260507092044 | 15 | 0.0 | 0.0 | 0.00 | 0.91 | 0.00 | 70 | 1015.9 | |
| 20260507091044 | 16 | 0.0 | 0.0 | 0.00 | 0.91 | 0.00 | 68 | 1015.9 | |
| 20260507090043 | 16 | 0.0 | 0.0 | 0.00 | 0.91 | 0.00 | 68 | 1015.9 | |
| 20260507085143 | 15 | 0.0 | 0.0 | 0.00 | 0.91 | 0.00 | 75 | 1015.9 | |
| 20260507084042 | 14 | 0.0 | 0.0 | 0.00 | 0.91 | 0.00 | 79 | 1015.9 | |
| 20260507083041 | 13 | 0.0 | 0.0 | 0.00 | 0.91 | 0.00 | 80 | 1015.9 | |
| 20260507082210 | 13 | 0.0 | 0.0 | 0.00 | 0.91 | 0.00 | 79 | 1015.9 | |
| 20260507081040 | 12 | 0.0 | 0.0 | 0.00 | 0.91 | 0.00 | 82 | 1015.9 | |
| 20260507080109 | 12 | 0.0 | 0.0 | 0.00 | 0.91 | 0.00 | 81 | 1015.9 | |
| 20260507075108 | 13 | 0.0 | 0.0 | 0.00 | 0.91 | 0.00 | 80 | 1015.9 | |
| 20260507074208 | 13 | 0.0 | 0.0 | 0.00 | 0.91 | 0.00 | 79 | 1015.9 | |
| 20260507073137 | 13 | 0.0 | 1.6 | 0.00 | 0.91 | 0.00 | 81 | 1015.7 | |
| 20260507072136 | 13 | 0.0 | 0.0 | 0.00 | 0.91 | 0.00 | 82 | 1015.7 | |
| 20260507071105 | 13 | 135 | 3.2 | 4.8 | 0.00 | 0.91 | 0.00 | 81 | 1015.7 |
| 20260507070105 | 13 | 0.0 | 0.0 | 0.00 | 0.91 | 0.00 | 83 | 1015.9 | |
| 20260507065034 | 12 | 180 | 0.0 | 1.6 | 0.00 | 0.91 | 0.00 | 83 | 1015.8 |
| 20260507064133 | 12 | 158 | 1.6 | 1.6 | 0.00 | 0.91 | 0.00 | 83 | 1015.7 |
| 20260507063103 | 12 | 180 | 1.6 | 1.6 | 0.00 | 0.91 | 0.00 | 84 | 1015.7 |
| 20260507062032 | 12 | 0.0 | 1.6 | 0.00 | 0.91 | 0.00 | 85 | 1015.7 | |
| 20260507061031 | 11 | 180 | 1.6 | 1.6 | 0.00 | 0.91 | 0.00 | 86 | 1015.7 |
| 20260507060051 | 10 | 180 | 3.2 | 4.8 | 0.00 | 0.91 | 0.00 | 87 | 1015.7 |
| 20260507055100 | 9 | 245 | 1.6 | 4.8 | 0.00 | 0.91 | 0.00 | 87 | 1015.6 |
| 20260507054029 | 9 | 248 | 1.6 | 4.8 | 0.00 | 0.91 | 0.00 | 87 | 1015.6 |
| 20260507053029 | 9 | 203 | 1.6 | 1.6 | 0.00 | 0.91 | 0.00 | 86 | 1015.5 |
| 20260507052028 | 9 | 0.0 | 0.0 | 0.00 | 0.91 | 0.00 | 86 | 1015.4 | |
| 20260507051027 | 9 | 203 | 0.0 | 1.6 | 0.00 | 0.91 | 0.00 | 87 | 1015.5 |
| 20260507050056 | 8 | 203 | 0.0 | 1.6 | 0.00 | 0.91 | 0.00 | 86 | 1015.3 |
| 20260507045056 | 8 | 203 | 0.0 | 1.6 | 0.00 | 0.91 | 0.00 | 86 | 1015.3 |
| 20260507044025 | 8 | 188 | 3.2 | 6.4 | 0.00 | 0.91 | 0.00 | 86 | 1015.2 |
| 20260507043104 | 8 | 248 | 0.0 | 1.6 | 0.00 | 0.91 | 0.00 | 86 | 1015.2 |
| 20260507042054 | 8 | 248 | 1.6 | 4.8 | 0.00 | 0.91 | 0.00 | 86 | 1015.2 |
| 20260507041123 | 8 | 0.0 | 0.0 | 0.00 | 0.91 | 0.00 | 86 | 1015.1 | |
| 20260507040242 | 8 | 248 | 0.0 | 1.6 | 0.00 | 0.91 | 0.00 | 86 | 1015.1 |
| 20260507035122 | 8 | 0.0 | 0.0 | 0.00 | 0.91 | 0.00 | 86 | 1015.1 | |
| 20260507034051 | 9 | 0.0 | 0.0 | 0.00 | 0.91 | 0.00 | 85 | 1015.1 | |
| 20260507033140 | 9 | 248 | 0.0 | 1.6 | 0.00 | 0.91 | 0.00 | 86 | 1015.2 |
| 20260507032049 | 9 | 248 | 0.0 | 1.6 | 0.00 | 0.91 | 0.00 | 86 | 1015.1 |
| 20260507031059 | 9 | 248 | 0.0 | 1.6 | 0.00 | 0.91 | 0.00 | 86 | 1015.1 |
| 20260507030118 | 9 | 269 | 1.6 | 6.4 | 0.00 | 0.91 | 0.00 | 86 | 1015.2 |
| 20260507025047 | 9 | 276 | 3.2 | 8.0 | 0.00 | 0.91 | 0.00 | 86 | 1015.2 |
| 20260507024127 | 9 | 281 | 3.2 | 6.4 | 0.00 | 0.91 | 0.00 | 86 | 1015.2 |
| 20260507023046 | 9 | 266 | 3.2 | 6.4 | 0.00 | 0.91 | 0.00 | 86 | 1015.3 |
| 20260507022215 | 9 | 270 | 4.8 | 6.4 | 0.00 | 0.91 | 0.00 | 87 | 1015.3 |
| 20260507021044 | 9 | 274 | 4.8 | 6.4 | 0.00 | 0.91 | 0.00 | 87 | 1015.3 |
| 20260507020044 | 9 | 266 | 3.2 | 4.8 | 0.00 | 0.91 | 0.00 | 86 | 1015.3 |
| 20260507015113 | 9 | 270 | 3.2 | 4.8 | 0.00 | 0.91 | 0.00 | 86 | 1015.3 |
| 20260507014042 | 10 | 263 | 3.2 | 6.4 | 0.00 | 0.91 | 0.00 | 85 | 1015.5 |
| 20260507013041 | 10 | 270 | 4.8 | 8.0 | 0.00 | 0.91 | 0.00 | 85 | 1015.5 |
| 20260507012040 | 10 | 292 | 6.4 | 12.9 | 0.00 | 0.91 | 0.00 | 86 | 1015.5 |
| 20260507011040 | 10 | 274 | 6.4 | 11.3 | 0.00 | 0.91 | 0.00 | 86 | 1015.5 |
| 20260507010039 | 10 | 293 | 6.4 | 12.9 | 0.00 | 0.91 | 0.00 | 85 | 1015.6 |
| 20260507005039 | 10 | 275 | 6.4 | 12.9 | 0.00 | 0.91 | 0.00 | 85 | 1015.7 |
| 20260507004038 | 10 | 272 | 4.8 | 8.0 | 0.00 | 0.91 | 0.00 | 86 | 1015.8 |
| 20260507003037 | 10 | 273 | 4.8 | 8.0 | 0.00 | 0.91 | 0.00 | 86 | 1015.9 |
| 20260507002036 | 10 | 277 | 4.8 | 8.0 | 0.00 | 0.91 | 0.00 | 86 | 1015.9 |
| 20260507001035 | 10 | 281 | 6.4 | 11.3 | 0.00 | 0.94 | 0.00 | 86 | 1015.9 |
| 20260507000035 | 10 | 274 | 6.4 | 11.3 | 0.00 | 0.94 | 0.00 | 86 | 1015.9 |
| 20260506235126 | 10 | 268 | 4.8 | 6.4 | 0.00 | 0.94 | 0.00 | 86 | 1015.9 |
| 20260506234034 | 10 | 262 | 4.8 | 6.4 | 0.00 | 0.94 | 0.00 | 86 | 1015.9 |
| 20260506233033 | 10 | 266 | 4.8 | 11.3 | 0.00 | 0.94 | 0.00 | 86 | 1015.9 |
| 20260506232032 | 10 | 279 | 6.4 | 12.9 | 0.00 | 0.94 | 0.00 | 86 | 1015.9 |
| 20260506231031 | 10 | 284 | 8.0 | 12.9 | 0.00 | 0.94 | 0.00 | 87 | 1015.9 |
| 20260506230031 | 10 | 281 | 8.0 | 16.1 | 0.00 | 0.94 | 0.00 | 88 | 1015.8 |
| 20260506225030 | 10 | 283 | 6.4 | 11.3 | 0.00 | 0.94 | 0.00 | 88 | 1015.8 |
| 20260506224059 | 10 | 273 | 6.4 | 11.3 | 0.00 | 0.94 | 0.00 | 88 | 1015.8 |
| 20260506223048 | 10 | 273 | 4.8 | 8.0 | 0.00 | 0.94 | 0.00 | 88 | 1015.8 |
| 20260506222028 | 10 | 258 | 4.8 | 8.0 | 0.00 | 0.94 | 0.00 | 88 | 1015.8 |
| 20260506221027 | 11 | 270 | 1.6 | 4.8 | 0.00 | 0.94 | 0.00 | 88 | 1015.8 |
| 20260506220117 | 11 | 0.0 | 0.0 | 0.00 | 0.94 | 0.00 | 88 | 1015.7 | |
| 20260506215025 | 11 | 270 | 0.0 | 1.6 | 0.00 | 0.94 | 0.94 | 89 | 1015.7 |
| 20260506214025 | 11 | 281 | 3.2 | 6.4 | 0.00 | 0.94 | 0.94 | 89 | 1015.8 |
| 20260506213024 | 11 | 318 | 3.2 | 6.4 | 0.00 | 0.94 | 0.94 | 89 | 1015.7 |
| 20260506212023 | 11 | 338 | 1.6 | 4.8 | 0.25 | 0.94 | 0.94 | 89 | 1015.6 |
| 20260506211053 | 11 | 330 | 4.8 | 16.1 | 0.28 | 0.94 | 0.94 | 89 | 1015.7 |
| 20260506210052 | 11 | 343 | 3.2 | 6.4 | 0.28 | 0.94 | 0.94 | 89 | 1015.7 |
| 20260506205021 | 11 | 336 | 3.2 | 8.0 | 0.33 | 0.94 | 0.94 | 88 | 1015.6 |
| 20260506204022 | 11 | 355 | 3.2 | 8.0 | 0.38 | 0.94 | 0.94 | 88 | 1015.4 |
| 20260506203020 | 11 | 0.0 | 0.0 | 0.41 | 0.94 | 0.94 | 87 | 1015.3 | |
| 20260506202049 | 12 | 0.0 | 0.0 | 0.18 | 0.66 | 0.66 | 85 | 1015.0 | |
| 20260506201138 | 12 | 0.0 | 0.0 | 0.41 | 0.64 | 0.64 | 85 | 1014.9 | |
| 20260506200418 | 12 | 0.0 | 0.0 | 0.41 | 0.64 | 0.64 | 85 | 1014.9 | |
| 20260506195147 | 12 | 0.0 | 0.0 | 0.36 | 0.58 | 0.58 | 84 | 1014.8 | |
| 20260506194047 | 12 | 0.0 | 0.0 | 0.30 | 0.53 | 0.53 | 84 | 1014.7 | |
| 20260506193246 | 12 | 0.0 | 0.0 | 0.28 | 0.51 | 0.51 | 84 | 1014.5 |